| time (UTC) | temp F | wind direction | speed knots | gust knots | rain 1hr in | rain 24hr in | rain mn in | humidity % | barometer mb |
| 20260506051024 | 47 | 5 | 1.7 | 9.6 | 0.00 | 0.47 | 0.00 | 76 | 1016.2 |
| 20260506050526 | 48 | 0 | 1.7 | 9.6 | 0.00 | 0.47 | 0.00 | 75 | 1016.3 |
| 20260506045024 | 48 | 0 | 0.0 | 4.3 | 0.00 | 0.79 | 0.47 | 73 | 1016.1 |
| 20260506044544 | 48 | 0 | 0.0 | 7.0 | 0.00 | 0.79 | 0.47 | 72 | 1016.1 |
| 20260506044025 | 48 | 5 | 0.0 | 9.6 | 0.00 | 0.79 | 0.47 | 70 | 1016.1 |
| 20260506043525 | 49 | 0 | 1.7 | 9.6 | 0.00 | 0.79 | 0.47 | 69 | 1016.1 |
| 20260506043035 | 49 | 355 | 2.6 | 9.6 | 0.00 | 0.79 | 0.47 | 67 | 1016.1 |
| 20260506042528 | 50 | 0 | 3.5 | 10.4 | 0.00 | 0.79 | 0.47 | 67 | 1016.2 |
| 20260506042022 | 50 | 0 | 2.6 | 10.4 | 0.00 | 0.79 | 0.47 | 64 | 1016.1 |
| 20260506041536 | 50 | 337 | 4.3 | 11.3 | 0.00 | 0.79 | 0.47 | 63 | 1016.0 |
| 20260506041024 | 50 | 338 | 2.6 | 11.3 | 0.00 | 0.79 | 0.47 | 63 | 1015.8 |
| 20260506040525 | 50 | 360 | 0.9 | 8.7 | 0.00 | 0.79 | 0.47 | 63 | 1015.8 |
| 20260506040036 | 50 | 19 | 1.7 | 12.2 | 0.00 | 0.79 | 0.47 | 63 | 1015.8 |
| 20260506035528 | 51 | 15 | 2.6 | 12.2 | 0.00 | 0.79 | 0.47 | 63 | 1016.0 |
| 20260506035025 | 51 | 348 | 2.6 | 13.0 | 0.00 | 0.79 | 0.47 | 62 | 1015.8 |
| 20260506034538 | 51 | 360 | 5.2 | 13.0 | 0.00 | 0.79 | 0.47 | 63 | 1015.8 |
| 20260506034026 | 51 | 272 | 0.0 | 11.3 | 0.00 | 0.79 | 0.47 | 66 | 1015.5 |
| 20260506033525 | 50 | 267 | 1.7 | 11.3 | 0.00 | 0.79 | 0.47 | 68 | 1015.2 |
| 20260506033039 | 50 | 0 | 0.9 | 4.3 | 0.00 | 0.79 | 0.47 | 69 | 1014.9 |
| 20260506032525 | 50 | 0 | 0.0 | 2.6 | 0.00 | 0.79 | 0.47 | 70 | 1014.7 |
| 20260506032026 | 50 | 0 | 0.0 | 0.0 | 0.00 | 0.79 | 0.47 | 70 | 1014.6 |
| 20260506031538 | 50 | 0 | 0.0 | 0.0 | 0.00 | 0.79 | 0.47 | 70 | 1014.7 |
| 20260506031025 | 51 | 0 | 0.0 | 2.6 | 0.00 | 0.79 | 0.47 | 70 | 1014.5 |
| 20260506030529 | 51 | 0 | 0.0 | 2.6 | 0.00 | 0.79 | 0.47 | 69 | 1014.3 |
| 20260506030055 | 51 | 0 | 0.0 | 5.2 | 0.00 | 0.79 | 0.47 | 68 | 1014.2 |
| 20260506025525 | 51 | 0 | 0.0 | 6.1 | 0.00 | 0.79 | 0.47 | 67 | 1014.2 |
| 20260506025029 | 51 | 0 | 0.0 | 6.1 | 0.00 | 0.79 | 0.47 | 67 | 1014.0 |
| 20260506024547 | 51 | 336 | 0.0 | 7.8 | 0.00 | 0.79 | 0.47 | 67 | 1014.1 |
| 20260506024023 | 51 | 0 | 0.9 | 7.8 | 0.00 | 0.79 | 0.47 | 67 | 1013.8 |
| 20260506023525 | 51 | 11 | 0.0 | 7.8 | 0.00 | 0.79 | 0.47 | 67 | 1013.8 |
| 20260506023039 | 51 | 0 | 2.6 | 7.8 | 0.00 | 0.79 | 0.47 | 67 | 1013.7 |
| 20260506022525 | 51 | 5 | 0.9 | 7.0 | 0.00 | 0.79 | 0.47 | 68 | 1013.4 |
| 20260506022021 | 51 | 0 | 1.7 | 7.0 | 0.00 | 0.79 | 0.47 | 68 | 1013.5 |
| 20260506021537 | 51 | 0 | 0.9 | 7.0 | 0.00 | 0.79 | 0.47 | 68 | 1013.4 |
| 20260506021022 | 51 | 0 | 0.0 | 1.7 | 0.00 | 0.79 | 0.47 | 68 | 1013.5 |
| 20260506020527 | 51 | 0 | 0.0 | 1.7 | 0.00 | 0.79 | 0.47 | 67 | 1013.3 |
| 20260506020035 | 51 | 0 | 0.0 | 4.3 | 0.00 | 0.79 | 0.47 | 67 | 1013.2 |
| 20260506015524 | 52 | 0 | 0.0 | 4.3 | 0.00 | 0.79 | 0.47 | 67 | 1013.1 |
| 20260506015024 | 52 | 355 | 0.0 | 0.0 | 0.00 | 0.79 | 0.47 | 68 | 1012.8 |
| 20260506014543 | 52 | 0 | 0.0 | 0.0 | 0.00 | 0.79 | 0.47 | 67 | 1012.8 |
| 20260506014023 | 52 | 0 | 0.0 | 0.0 | 0.00 | 0.79 | 0.47 | 65 | 1012.7 |
| 20260506013523 | 52 | 0 | 0.0 | 1.7 | 0.00 | 0.79 | 0.47 | 64 | 1012.6 |
| 20260506013036 | 52 | 0 | 0.0 | 1.7 | 0.00 | 0.79 | 0.47 | 63 | 1012.7 |
| 20260506012521 | 53 | 0 | 0.0 | 4.3 | 0.00 | 0.79 | 0.47 | 63 | 1012.5 |
| 20260506012023 | 53 | 5 | 0.0 | 4.3 | 0.00 | 0.79 | 0.47 | 62 | 1012.5 |
| 20260506011538 | 53 | 0 | 0.0 | 3.5 | 0.00 | 0.79 | 0.47 | 65 | 1012.7 |
| 20260506011023 | 53 | 0 | 0.0 | 7.0 | 0.00 | 0.79 | 0.47 | 65 | 1012.6 |
| 20260506010523 | 53 | 0 | 0.0 | 7.0 | 0.00 | 0.79 | 0.47 | 67 | 1012.7 |
| 20260506010045 | 53 | 360 | 0.0 | 0.9 | 0.00 | 0.79 | 0.47 | 73 | 1012.6 |
| 20260506005522 | 53 | 0 | 0.0 | 0.0 | 0.00 | 0.79 | 0.47 | 78 | 1012.5 |
| 20260506005023 | 53 | 0 | 0.0 | 0.0 | 0.00 | 0.79 | 0.47 | 80 | 1012.6 |
| 20260506004546 | 53 | 0 | 0.0 | 0.0 | 0.00 | 0.79 | 0.47 | 79 | 1012.5 |
| 20260506004024 | 53 | 0 | 0.0 | 0.9 | 0.00 | 0.79 | 0.47 | 79 | 1012.3 |
| 20260506003523 | 53 | 0 | 0.0 | 0.9 | 0.00 | 0.79 | 0.47 | 79 | 1012.2 |
| 20260506003040 | 53 | 0 | 0.0 | 0.0 | 0.00 | 0.79 | 0.47 | 78 | 1012.3 |
| 20260506002522 | 53 | 0 | 0.0 | 1.7 | 0.00 | 0.79 | 0.47 | 78 | 1012.3 |
| 20260506002023 | 53 | 0 | 0.0 | 1.7 | 0.00 | 0.79 | 0.47 | 78 | 1012.0 |
| 20260506001535 | 53 | 0 | 0.0 | 1.7 | 0.00 | 0.79 | 0.47 | 78 | 1012.2 |
| 20260506001023 | 53 | 0 | 0.0 | 1.7 | 0.00 | 0.79 | 0.47 | 78 | 1012.3 |
| 20260506000524 | 53 | 355 | 0.0 | 0.0 | 0.00 | 0.79 | 0.47 | 78 | 1012.4 |
| 20260506000038 | 53 | 0 | 0.0 | 0.0 | 0.00 | 0.79 | 0.47 | 78 | 1012.3 |
| 20260505235524 | 53 | 0 | 0.0 | 0.0 | 0.00 | 0.79 | 0.47 | 77 | 1012.3 |
| 20260505235024 | 53 | 0 | 0.0 | 0.0 | 0.00 | 0.79 | 0.47 | 77 | 1012.1 |
| 20260505234536 | 53 | 0 | 0.0 | 0.0 | 0.00 | 0.79 | 0.47 | 76 | 1012.2 |
| 20260505234024 | 53 | 0 | 0.0 | 0.0 | 0.00 | 0.79 | 0.47 | 76 | 1012.4 |
| 20260505233524 | 53 | 0 | 0.0 | 0.0 | 0.00 | 0.79 | 0.47 | 77 | 1012.5 |
| 20260505233035 | 53 | 0 | 0.0 | 0.0 | 0.00 | 0.79 | 0.47 | 76 | 1012.4 |
| 20260505232521 | 53 | 0 | 0.0 | 0.0 | 0.00 | 0.79 | 0.47 | 76 | 1012.3 |
| 20260505232021 | 53 | 0 | 0.0 | 0.0 | 0.00 | 0.79 | 0.47 | 76 | 1012.3 |
| 20260505231535 | 53 | 0 | 0.0 | 0.0 | 0.00 | 0.79 | 0.47 | 76 | 1012.2 |
| 20260505231023 | 53 | 0 | 0.0 | 0.0 | 0.00 | 0.79 | 0.47 | 75 | 1012.3 |
| 20260505230537 | 53 | 0 | 0.0 | 0.0 | 0.00 | 0.79 | 0.47 | 75 | 1012.3 |
| 20260505230047 | 53 | 0 | 0.0 | 0.0 | 0.00 | 0.79 | 0.47 | 75 | 1012.3 |
| 20260505225522 | 53 | 0 | 0.0 | 0.0 | 0.00 | 0.79 | 0.47 | 76 | 1012.4 |
| 20260505225026 | 53 | 0 | 0.0 | 0.0 | 0.00 | 0.79 | 0.47 | 76 | 1012.5 |
| 20260505224537 | 52 | 0 | 0.0 | 1.7 | 0.00 | 0.79 | 0.47 | 75 | 1012.4 |
| 20260505224022 | 52 | 0 | 0.0 | 3.5 | 0.00 | 0.79 | 0.47 | 76 | 1012.4 |
| 20260505223521 | 52 | 0 | 0.0 | 3.5 | 0.00 | 0.79 | 0.47 | 75 | 1012.3 |
| 20260505223036 | 52 | 0 | 0.0 | 4.3 | 0.00 | 0.79 | 0.47 | 75 | 1012.2 |
| 20260505222522 | 52 | 0 | 0.0 | 4.3 | 0.00 | 0.79 | 0.47 | 75 | 1012.1 |
| 20260505222024 | 52 | 13 | 0.0 | 4.3 | 0.00 | 0.79 | 0.47 | 75 | 1012.1 |
| 20260505221536 | 52 | 40 | 0.0 | 3.5 | 0.00 | 0.79 | 0.47 | 76 | 1012.2 |
| 20260505221023 | 52 | 46 | 0.0 | 3.5 | 0.00 | 0.79 | 0.47 | 75 | 1012.2 |
| 20260505220521 | 52 | 0 | 0.0 | 2.6 | 0.00 | 0.79 | 0.47 | 75 | 1012.3 |
| 20260505220041 | 52 | 0 | 0.0 | 1.7 | 0.00 | 0.79 | 0.47 | 75 | 1012.3 |
| 20260505215525 | 52 | 5 | 0.0 | 3.5 | 0.00 | 0.79 | 0.47 | 74 | 1012.3 |
| 20260505215025 | 52 | 0 | 0.0 | 3.5 | 0.00 | 0.79 | 0.47 | 75 | 1012.2 |
| 20260505214536 | 52 | 0 | 0.0 | 3.5 | 0.00 | 0.79 | 0.47 | 74 | 1012.3 |
| 20260505214023 | 52 | 0 | 0.0 | 3.5 | 0.00 | 0.79 | 0.47 | 75 | 1012.3 |
| 20260505213527 | 52 | 315 | 0.9 | 3.5 | 0.00 | 0.79 | 0.47 | 74 | 1012.4 |
| 20260505213043 | 52 | 9 | 0.0 | 4.3 | 0.00 | 0.79 | 0.47 | 75 | 1012.5 |
| 20260505212526 | 52 | 0 | 0.0 | 4.3 | 0.00 | 0.79 | 0.47 | 73 | 1012.3 |
| 20260505212024 | 52 | 19 | 1.7 | 4.3 | 0.00 | 0.79 | 0.47 | 74 | 1012.4 |
| 20260505211541 | 52 | 0 | 0.0 | 4.3 | 0.00 | 0.79 | 0.47 | 75 | 1012.5 |
| 20260505211024 | 52 | 25 | 0.0 | 4.3 | 0.00 | 0.79 | 0.47 | 75 | 1012.5 |
| 20260505210521 | 52 | 0 | 0.9 | 4.3 | 0.00 | 0.79 | 0.47 | 75 | 1012.4 |
| 20260505210036 | 52 | 38 | 0.0 | 5.2 | 0.00 | 0.79 | 0.47 | 75 | 1012.5 |
| 20260505205525 | 52 | 0 | 0.0 | 7.0 | 0.00 | 0.79 | 0.47 | 75 | 1012.5 |
| 20260505205021 | 51 | 5 | 1.7 | 8.7 | 0.00 | 0.79 | 0.47 | 76 | 1012.5 |
| 20260505204537 | 51 | 360 | 0.9 | 8.7 | 0.00 | 0.79 | 0.47 | 78 | 1012.5 |
| 20260505204027 | 51 | 5 | 1.7 | 7.8 | 0.00 | 0.79 | 0.47 | 80 | 1012.5 |
| 20260505203521 | 51 | 0 | 0.0 | 4.3 | 0.00 | 0.79 | 0.47 | 82 | 1012.5 |
| 20260505203041 | 51 | 0 | 0.0 | 4.3 | 0.00 | 0.79 | 0.47 | 82 | 1012.5 |
| 20260505202523 | 51 | 0 | 0.0 | 2.6 | 0.00 | 0.79 | 0.47 | 81 | 1012.7 |
| 20260505202023 | 51 | 0 | 0.0 | 2.6 | 0.00 | 0.79 | 0.47 | 81 | 1012.9 |
| 20260505201537 | 51 | 0 | 0.0 | 2.6 | 0.00 | 0.79 | 0.47 | 82 | 1012.7 |
| 20260505201021 | 51 | 0 | 0.0 | 4.3 | 0.00 | 0.79 | 0.47 | 84 | 1012.9 |
| 20260505200522 | 50 | 0 | 0.0 | 4.3 | 0.00 | 0.79 | 0.47 | 82 | 1012.8 |
| 20260505200038 | 50 | 33 | 0.0 | 3.5 | 0.00 | 0.79 | 0.47 | 83 | 1012.9 |
| 20260505195528 | 50 | 0 | 0.0 | 4.3 | 0.00 | 0.79 | 0.47 | 83 | 1013.0 |
| 20260505195024 | 50 | 0 | 1.7 | 4.3 | 0.00 | 0.79 | 0.47 | 83 | 1013.0 |
| 20260505194535 | 50 | 0 | 0.0 | 4.3 | 0.00 | 0.79 | 0.47 | 84 | 1013.0 |
| 20260505194024 | 50 | 0 | 0.0 | 3.5 | 0.00 | 0.79 | 0.47 | 83 | 1012.9 |
| 20260505193527 | 50 | 0 | 0.0 | 3.5 | 0.00 | 0.79 | 0.47 | 85 | 1013.1 |
| 20260505193052 | 49 | 35 | 0.9 | 4.3 | 0.00 | 0.79 | 0.47 | 85 | 1013.1 |
| 20260505192524 | 49 | 0 | 0.9 | 7.0 | 0.00 | 0.79 | 0.47 | 85 | 1013.0 |
| 20260505192024 | 49 | 32 | 0.9 | 7.0 | 0.00 | 0.79 | 0.47 | 85 | 1013.0 |
| 20260505191542 | 49 | 27 | 0.0 | 4.3 | 0.01 | 0.79 | 0.47 | 86 | 1013.0 |
| 20260505191025 | 49 | 0 | 0.0 | 4.3 | 0.01 | 0.79 | 0.47 | 86 | 1012.8 |
| 20260505190525 | 49 | 0 | 0.9 | 4.3 | 0.01 | 0.79 | 0.47 | 87 | 1012.7 |
| 20260505190042 | 49 | 0 | 0.0 | 0.9 | 0.01 | 0.79 | 0.47 | 86 | 1012.7 |
| 20260505185523 | 49 | 0 | 0.0 | 3.5 | 0.01 | 0.79 | 0.47 | 87 | 1012.6 |
| 20260505185027 | 49 | 0 | 0.0 | 3.5 | 0.01 | 0.79 | 0.47 | 87 | 1012.8 |
| 20260505184535 | 49 | 65 | 0.0 | 3.5 | 0.01 | 0.79 | 0.47 | 87 | 1012.8 |
| 20260505184025 | 48 | 0 | 0.0 | 0.9 | 0.02 | 0.79 | 0.47 | 87 | 1012.8 |
| 20260505183525 | 48 | 0 | 0.0 | 1.7 | 0.02 | 0.79 | 0.47 | 87 | 1013.0 |
| 20260505183037 | 48 | 0 | 0.0 | 1.7 | 0.02 | 0.79 | 0.47 | 87 | 1013.0 |
| 20260505182523 | 48 | 0 | 0.0 | 0.0 | 0.03 | 0.79 | 0.47 | 87 | 1013.0 |
| 20260505182025 | 48 | 0 | 0.0 | 2.6 | 0.03 | 0.79 | 0.47 | 87 | 1013.3 |
| 20260505181536 | 48 | 0 | 0.0 | 3.5 | 0.04 | 0.78 | 0.46 | 87 | 1013.3 |
| 20260505181024 | 48 | 0 | 0.0 | 6.1 | 0.05 | 0.78 | 0.46 | 87 | 1013.3 |
| 20260505180524 | 48 | 59 | 0.0 | 6.1 | 0.05 | 0.78 | 0.46 | 87 | 1013.4 |
| 20260505180045 | 48 | 12 | 0.0 | 5.2 | 0.05 | 0.78 | 0.46 | 87 | 1013.4 |
| 20260505175528 | 48 | 0 | 0.0 | 3.5 | 0.05 | 0.78 | 0.46 | 88 | 1013.6 |
| 20260505175024 | 48 | 0 | 0.0 | 3.5 | 0.05 | 0.78 | 0.46 | 88 | 1013.5 |
| 20260505174538 | 48 | 38 | 0.0 | 3.5 | 0.05 | 0.78 | 0.46 | 88 | 1013.8 |
| 20260505174025 | 47 | 0 | 0.0 | 3.5 | 0.04 | 0.77 | 0.45 | 88 | 1013.7 |
| 20260505173527 | 48 | 0 | 0.0 | 3.5 | 0.05 | 0.77 | 0.45 | 88 | 1013.6 |
| 20260505173035 | 48 | 0 | 0.0 | 0.0 | 0.05 | 0.77 | 0.45 | 88 | 1013.8 |
| 20260505172524 | 48 | 0 | 0.0 | 0.0 | 0.05 | 0.76 | 0.44 | 88 | 1013.8 |
| 20260505172024 | 47 | 0 | 0.0 | 0.0 | 0.04 | 0.75 | 0.43 | 88 | 1013.8 |
| 20260505171541 | 47 | 0 | 0.0 | 0.9 | 0.03 | 0.74 | 0.42 | 88 | 1013.6 |
| 20260505171025 | 47 | 0 | 0.0 | 0.9 | 0.02 | 0.73 | 0.41 | 88 | 1013.6 |
| 20260505170524 | 47 | 48 | 0.0 | 1.7 | 0.02 | 0.73 | 0.41 | 88 | 1013.5 |
| 20260505170050 | 48 | 0 | 0.0 | 1.7 | 0.02 | 0.73 | 0.41 | 88 | 1013.5 |
| 20260505165523 | 48 | 0 | 0.0 | 0.9 | 0.02 | 0.73 | 0.41 | 88 | 1013.5 |
| 20260505165023 | 47 | 0 | 0.0 | 0.9 | 0.02 | 0.73 | 0.41 | 88 | 1013.4 |
| 20260505164540 | 47 | 0 | 0.0 | 1.7 | 0.02 | 0.73 | 0.41 | 88 | 1013.6 |
| 20260505164024 | 47 | 0 | 0.0 | 2.6 | 0.02 | 0.73 | 0.41 | 88 | 1013.5 |
| 20260505163520 | 47 | 0 | 0.0 | 2.6 | 0.01 | 0.72 | 0.40 | 88 | 1013.5 |
| 20260505163041 | 47 | 0 | 0.0 | 1.7 | 0.02 | 0.72 | 0.40 | 88 | 1013.4 |
| 20260505162523 | 47 | 0 | 0.0 | 1.7 | 0.01 | 0.71 | 0.39 | 88 | 1013.4 |
| 20260505162022 | 47 | 0 | 0.0 | 1.7 | 0.02 | 0.71 | 0.39 | 87 | 1013.4 |
| 20260505161536 | 47 | 0 | 0.0 | 2.6 | 0.02 | 0.71 | 0.39 | 88 | 1013.5 |
| 20260505161023 | 47 | 0 | 0.0 | 3.5 | 0.02 | 0.71 | 0.39 | 87 | 1013.6 |
| 20260505160523 | 47 | 0 | 0.0 | 3.5 | 0.02 | 0.71 | 0.39 | 87 | 1013.4 |
| 20260505153043 | 46 | 0 | 0.0 | 4.3 | 0.05 | 0.70 | 0.38 | 87 | 1013.5 |
| 20260505152520 | 46 | 0 | 0.0 | 6.1 | 0.05 | 0.70 | 0.38 | 87 | 1013.6 |
| 20260505152029 | 46 | 0 | 0.9 | 6.1 | 0.04 | 0.69 | 0.37 | 87 | 1013.2 |
| 20260505151540 | 46 | 0 | 0.0 | 4.3 | 0.04 | 0.69 | 0.37 | 87 | 1013.5 |
| 20260505151021 | 46 | 0 | 0.0 | 7.0 | 0.04 | 0.69 | 0.37 | 87 | 1013.8 |
| 20260505150523 | 46 | 36 | 0.0 | 7.0 | 0.04 | 0.69 | 0.37 | 87 | 1013.6 |
| 20260505140523 | 47 | 0 | 0.9 | 6.1 | 0.01 | 0.65 | 0.33 | 86 | 1012.2 |
| 20260505125024 | 47 | 0 | 0.0 | 0.0 | 0.07 | 0.64 | 0.32 | 83 | 1011.5 |
| 20260505124540 | 48 | 0 | 0.0 | 0.9 | 0.07 | 0.64 | 0.32 | 81 | 1011.4 |
| 20260505124023 | 49 | 0 | 0.0 | 4.3 | 0.06 | 0.63 | 0.31 | 79 | 1012.0 |
| 20260505123524 | 49 | 0 | 0.9 | 9.6 | 0.00 | 0.57 | 0.25 | 78 | 1011.3 |
| 20260505123048 | 49 | 0 | 1.7 | 9.6 | 0.00 | 0.57 | 0.25 | 78 | 1012.9 |
| 20260505122524 | 49 | 284 | 0.9 | 5.2 | 0.01 | 0.57 | 0.25 | 78 | 1012.1 |
| 20260505122024 | 48 | 0 | 0.9 | 4.3 | 0.01 | 0.57 | 0.25 | 78 | 1010.1 |
| 20260505121537 | 48 | 0 | 0.0 | 4.3 | 0.01 | 0.57 | 0.25 | 79 | 1010.0 |
| 20260505121025 | 48 | 13 | 0.0 | 4.3 | 0.01 | 0.57 | 0.25 | 78 | 1010.0 |
| 20260505120527 | 48 | 0 | 0.0 | 4.3 | 0.01 | 0.57 | 0.25 | 78 | 1010.1 |
| 20260505120043 | 48 | 0 | 0.0 | 5.2 | 0.01 | 0.57 | 0.25 | 78 | 1010.1 |
| 20260505115524 | 48 | 0 | 0.0 | 5.2 | 0.02 | 0.57 | 0.25 | 79 | 1009.9 |
| 20260505115024 | 48 | 0 | 0.0 | 2.6 | 0.05 | 0.57 | 0.25 | 80 | 1009.9 |
| 20260505114534 | 48 | 0 | 0.0 | 0.0 | 0.05 | 0.57 | 0.25 | 80 | 1010.2 |
| 20260505114025 | 48 | 0 | 0.0 | 0.9 | 0.05 | 0.57 | 0.25 | 79 | 1010.6 |
| 20260505113524 | 49 | 0 | 0.0 | 1.7 | 0.05 | 0.57 | 0.25 | 78 | 1010.7 |
| 20260505113040 | 49 | 0 | 0.0 | 5.2 | 0.05 | 0.57 | 0.25 | 77 | 1010.1 |
| 20260505112527 | 49 | 15 | 0.0 | 5.2 | 0.04 | 0.56 | 0.24 | 75 | 1009.8 |
| 20260505112024 | 49 | 72 | 0.0 | 4.3 | 0.04 | 0.56 | 0.24 | 76 | 1010.0 |
| 20260505111536 | 49 | 0 | 0.0 | 4.3 | 0.04 | 0.56 | 0.24 | 75 | 1009.2 |
| 20260505111025 | 49 | 34 | 0.9 | 10.4 | 0.04 | 0.56 | 0.24 | 73 | 1009.7 |
| 20260505110525 | 50 | 0 | 1.7 | 10.4 | 0.04 | 0.56 | 0.24 | 70 | 1009.6 |
| 20260505102024 | 52 | 28 | 1.7 | 7.8 | 0.00 | 0.52 | 0.20 | 61 | 1008.9 |
| 20260505101536 | 52 | 30 | 2.6 | 7.8 | 0.00 | 0.52 | 0.20 | 61 | 1009.0 |
| 20260505101027 | 52 | 0 | 2.6 | 7.8 | 0.00 | 0.52 | 0.20 | 61 | 1009.0 |
| 20260505100524 | 52 | 9 | 3.5 | 7.8 | 0.00 | 0.52 | 0.20 | 62 | 1009.0 |
| 20260505100038 | 52 | 19 | 1.7 | 7.8 | 0.00 | 0.52 | 0.20 | 62 | 1009.0 |
| 20260505095524 | 52 | 21 | 1.7 | 7.0 | 0.00 | 0.52 | 0.20 | 63 | 1009.2 |
| 20260505095023 | 52 | 5 | 1.7 | 6.1 | 0.00 | 0.52 | 0.20 | 63 | 1009.1 |
| 20260505094539 | 52 | 52 | 1.7 | 7.0 | 0.00 | 0.52 | 0.20 | 63 | 1009.6 |
| 20260505094025 | 52 | 19 | 1.7 | 7.0 | 0.00 | 0.52 | 0.20 | 62 | 1009.9 |
| 20260505093526 | 52 | 0 | 1.7 | 7.8 | 0.00 | 0.52 | 0.20 | 62 | 1010.0 |
| 20260505093036 | 52 | 36 | 0.9 | 7.8 | 0.00 | 0.52 | 0.20 | 63 | 1009.8 |
| 20260505092525 | 52 | 21 | 2.6 | 10.4 | 0.00 | 0.52 | 0.20 | 61 | 1009.4 |
| 20260505092025 | 52 | 76 | 2.6 | 10.4 | 0.00 | 0.52 | 0.20 | 63 | 1009.4 |
| 20260505091538 | 52 | 14 | 1.7 | 9.6 | 0.00 | 0.52 | 0.20 | 63 | 1009.4 |
| 20260505091027 | 52 | 17 | 1.7 | 9.6 | 0.00 | 0.52 | 0.20 | 64 | 1009.1 |
| 20260505090524 | 52 | 351 | 1.7 | 9.6 | 0.00 | 0.52 | 0.20 | 65 | 1009.1 |
| 20260505090034 | 51 | 40 | 3.5 | 6.1 | 0.00 | 0.52 | 0.20 | 67 | 1009.2 |
| 20260505085526 | 51 | 0 | 0.9 | 8.7 | 0.00 | 0.52 | 0.20 | 70 | 1009.1 |
| 20260505085024 | 51 | 0 | 0.9 | 8.7 | 0.00 | 0.52 | 0.20 | 70 | 1008.9 |
| 20260505084555 | 51 | 15 | 2.6 | 8.7 | 0.00 | 0.52 | 0.20 | 71 | 1008.6 |
| 20260505084025 | 51 | 40 | 2.6 | 8.7 | 0.00 | 0.52 | 0.20 | 72 | 1008.3 |
| 20260505083529 | 51 | 34 | 2.6 | 7.8 | 0.00 | 0.52 | 0.20 | 72 | 1008.2 |
| 20260505083057 | 51 | 9 | 1.7 | 11.3 | 0.00 | 0.52 | 0.20 | 73 | 1008.0 |
| 20260505082525 | 51 | 36 | 1.7 | 11.3 | 0.00 | 0.52 | 0.20 | 74 | 1007.8 |
| 20260505082024 | 50 | 348 | 1.7 | 8.7 | 0.01 | 0.52 | 0.20 | 76 | 1007.6 |
| 20260505081553 | 50 | 46 | 1.7 | 7.8 | 0.02 | 0.52 | 0.20 | 77 | 1007.2 |
| 20260505081025 | 50 | 0 | 0.9 | 9.6 | 0.03 | 0.52 | 0.20 | 78 | 1007.1 |
| 20260505080525 | 50 | 0 | 0.9 | 9.6 | 0.05 | 0.52 | 0.20 | 79 | 1007.1 |
| 20260505080044 | 50 | 36 | 2.6 | 9.6 | 0.06 | 0.52 | 0.20 | 81 | 1007.0 |
| 20260505075524 | 50 | 0 | 0.0 | 10.4 | 0.09 | 0.52 | 0.20 | 82 | 1007.0 |
| 20260505075023 | 50 | 0 | 2.6 | 13.0 | 0.10 | 0.52 | 0.20 | 82 | 1007.0 |
| 20260505074535 | 50 | 40 | 4.3 | 13.0 | 0.11 | 0.52 | 0.20 | 84 | 1006.9 |
| 20260505074024 | 50 | 0 | 4.3 | 10.4 | 0.15 | 0.52 | 0.20 | 86 | 1006.7 |
| 20260505073521 | 50 | 38 | 1.7 | 5.2 | 0.15 | 0.52 | 0.20 | 85 | 1007.9 |
| 20260505073048 | 50 | 0 | 0.0 | 0.9 | 0.16 | 0.52 | 0.20 | 85 | 1009.5 |
| 20260505072523 | 50 | 0 | 0.0 | 0.0 | 0.16 | 0.52 | 0.20 | 84 | 1009.3 |
| 20260505072024 | 51 | 0 | 0.0 | 0.0 | 0.15 | 0.51 | 0.19 | 83 | 1008.5 |
| 20260505071545 | 51 | 0 | 0.0 | 3.5 | 0.14 | 0.50 | 0.18 | 81 | 1008.6 |
| 20260505071023 | 51 | 0 | 0.0 | 3.5 | 0.12 | 0.48 | 0.16 | 81 | 1008.5 |
| 20260505070528 | 52 | 0 | 0.9 | 3.5 | 0.11 | 0.47 | 0.15 | 79 | 1008.3 |
| 20260505070044 | 53 | 68 | 0.0 | 9.6 | 0.09 | 0.45 | 0.13 | 77 | 1009.0 |
| 20260505065523 | 53 | 0 | 0.0 | 10.4 | 0.07 | 0.43 | 0.11 | 73 | 1009.5 |
| 20260505065023 | 54 | 0 | 2.6 | 11.3 | 0.06 | 0.42 | 0.10 | 69 | 1009.8 |
| 20260505064536 | 56 | 35 | 4.3 | 12.2 | 0.05 | 0.41 | 0.09 | 65 | 1009.5 |
| 20260505064026 | 57 | 344 | 1.7 | 13.0 | 0.01 | 0.37 | 0.05 | 58 | 1009.4 |
| 20260505063523 | 58 | 9 | 5.2 | 13.0 | 0.01 | 0.37 | 0.05 | 55 | 1008.6 |
| 20260505063040 | 60 | 0 | 4.3 | 17.4 | 0.00 | 0.36 | 0.04 | 51 | 1007.8 |
| 20260505062521 | 61 | 53 | 6.1 | 17.4 | 0.00 | 0.36 | 0.04 | 47 | 1007.5 |
| 20260505062024 | 61 | 10 | 4.3 | 11.3 | 0.00 | 0.36 | 0.04 | 46 | 1007.6 |
| 20260505061535 | 62 | 19 | 4.3 | 13.0 | 0.00 | 0.36 | 0.04 | 46 | 1007.7 |
| 20260505061024 | 62 | 59 | 3.5 | 13.9 | 0.00 | 0.36 | 0.04 | 46 | 1007.2 |
| 20260505060524 | 62 | 33 | 6.1 | 15.6 | 0.01 | 0.36 | 0.04 | 46 | 1007.2 |
| 20260505060056 | 62 | 19 | 5.2 | 15.6 | 0.03 | 0.36 | 0.04 | 49 | 1007.0 |